This demonstration page uses our WeatherBlox Daily Observations layout. Learn more.

Left ArrowRight Arrow

Hourly Observations for April 9, 2016

Temp ( °F °C ) Dew Point ( °F °C ) Humidity (%) Winds ( mph kmh ) Pressure ( in mb ) Visibility ( mi km ) Precip ( " mm )
12:54 am 00:54 Clear 31 -0.6 15 -9.4 52 52 NNE 6 9 30.24 1024 10 16 0.00 0.00
1:54 am 01:54 Clear 30 -1.1 14 -10 51 51 N 3 6 30.25 1025 10 16 0.00 0.00
2:54 am 02:54 Clear 27 -2.8 15 -9.4 61 61 ESE 5 7 30.25 1024 10 16 0.00 0.00
3:54 am 03:54 Clear 31 -0.6 10 -12.2 42 42 E 10 17 30.23 1024 10 16 0.00 0.00
4:54 am 04:54 Clear 30 -1.1 10 -12.2 43 43 ESE 10 17 30.23 1024 10 16 0.00 0.00
5:54 am 05:54 Clear 29 -1.7 11 -11.7 47 47 ESE 10 17 30.22 1023 10 16 0.00 0.00
6:54 am 06:54 Clear 28 -2.2 11 -11.7 49 49 ESE 7 11 30.22 1023 10 16 0.00 0.00
7:54 am 07:54 Sunny 30 -1.1 10 -12.2 43 43 SE 13 20 30.23 1024 10 16 0.00 0.00
8:54 am 08:54 Sunny 33 0.6 11 -11.7 40 40 SE 15 24 30.22 1024 10 16 0.00 0.00
9:54 am 09:54 Sunny 37 2.8 10 -12.2 33 33 SSE 16 26 30.20 1023 10 16 0.00 0.00
10:54 am 10:54 Sunny 41 5 12 -11.1 30 30 ESE 16 26 30.16 1022 10 16 0.00 0.00
11:54 am 11:54 Sunny 45 7.2 13 -10.6 27 27 SSE 18 30 30.13 1020 10 16 0.00 0.00
12:54 pm 12:54 Sunny 50 10 14 -10 24 24 SE 16 26 30.07 1018 10 16 0.00 0.00
1:54 pm 13:54 Sunny 53 11.7 14 -10 21 21 SSE 22 35 30.02 1017 10 16 0.00 0.00
2:54 pm 14:54 Sunny 56 13.3 15 -9.4 20 20 SE 22 35 29.96 1015 10 16 0.00 0.00
3:54 pm 15:54 Sunny 60 15.6 19 -7.2 20 20 SSE 25 41 29.89 1012 10 16 0.00 0.00
4:54 pm 16:54 Sunny 62 16.7 23 -5 22 22 S 22 35 29.84 1010 10 16 0.00 0.00
5:54 pm 17:54 Sunny 63 17.2 25 -3.9 24 24 S 20 31 29.81 1009 10 16 0.00 0.00
6:54 pm 18:54 Sunny 62 16.7 27 -2.8 26 26 S 18 30 29.77 1008 9 14 0.00 0.00
7:54 pm 19:54 Sunny 60 15.6 28 -2.2 30 30 SSE 16 26 29.75 1007 10 16 0.00 0.00
8:54 pm 20:54 Clear 58 14.4 28 -2.2 32 32 SSE 17 28 29.72 1007 10 16 0.00 0.00
9:54 pm 21:54 Clear 56 13.3 29 -1.7 36 36 SSE 16 26 29.70 1006 10 16 0.00 0.00
10:54 pm 22:54 Clear 55 12.8 32 0 42 42 SSE 18 30 29.67 1005 10 16 0.00 0.00
11:54 pm 23:54 Clear 54 12.2 35 1.7 49 49 SSE 12 19 29.66 1004 10 16 0.00 0.00

Powered by AerisWeather